| time (UTC) | temp F | wind direction | speed MPH | gust MPH | rain 1hr in | rain 24hr in | rain mn in | humidity % | barometer mb |
| 20260906125841 | 67 | 250 | 0.0 | 0.0 | 0.00 | 0.00 | 0.00 | 45 | 1025.3 |
| 20260906125338 | 67 | 247 | 0.0 | 0.0 | 0.00 | 0.00 | 0.00 | 45 | 1025.4 |
| 20260906124833 | 67 | 250 | 0.0 | 0.0 | 0.00 | 0.00 | 0.00 | 45 | 1025.0 |
| 20260906124329 | 67 | 245 | 0.0 | 0.0 | 0.00 | 0.00 | 0.00 | 46 | 1025.3 |
| 20260906123828 | 66 | 250 | 0.0 | 0.0 | 0.00 | 0.00 | 0.00 | 47 | 1025.3 |
| 20260906123324 | 66 | 245 | 2.0 | 2.0 | 0.00 | 0.00 | 0.00 | 47 | 1025.0 |
| 20260906122823 | 67 | 245 | 1.0 | 2.0 | 0.00 | 0.00 | 0.00 | 46 | 1024.9 |
| 20260906122318 | 67 | 245 | 2.0 | 3.0 | 0.00 | 0.00 | 0.00 | 46 | 1025.0 |
| 20260906121815 | 67 | 251 | 1.0 | 2.0 | 0.00 | 0.00 | 0.00 | 46 | 1024.9 |
| 20260906121310 | 67 | 247 | 1.0 | 2.0 | 0.00 | 0.00 | 0.00 | 47 | 1024.9 |
| 20260906120806 | 67 | 245 | 1.0 | 2.0 | 0.00 | 0.00 | 0.00 | 47 | 1024.9 |
| 20260906120257 | 67 | 251 | 1.0 | 2.0 | 0.00 | 0.00 | 0.00 | 46 | 1024.6 |
| 20260906115752 | 67 | 244 | 2.0 | 2.0 | 0.00 | 0.00 | 0.00 | 46 | 1024.8 |
| 20260906115242 | 67 | 266 | 2.0 | 3.0 | 0.00 | 0.00 | 0.00 | 46 | 1024.6 |
| 20260906114741 | 68 | 249 | 2.0 | 2.0 | 0.00 | 0.00 | 0.00 | 46 | 1024.8 |
| 20260906114236 | 68 | 259 | 2.0 | 2.0 | 0.00 | 0.00 | 0.00 | 44 | 1024.9 |
| 20260906113731 | 67 | 249 | 1.0 | 2.0 | 0.00 | 0.00 | 0.00 | 45 | 1024.8 |
| 20260906113230 | 67 | 258 | 2.0 | 2.0 | 0.00 | 0.00 | 0.00 | 46 | 1024.8 |
| 20260906112725 | 68 | 244 | 2.0 | 3.0 | 0.00 | 0.00 | 0.00 | 45 | 1025.0 |
| 20260906112222 | 68 | 249 | 2.0 | 2.0 | 0.00 | 0.00 | 0.00 | 45 | 1024.8 |
| 20260906111721 | 68 | 245 | 2.0 | 2.0 | 0.00 | 0.00 | 0.00 | 45 | 1024.9 |
| 20260906111216 | 68 | 249 | 0.0 | 0.0 | 0.00 | 0.00 | 0.00 | 45 | 1024.8 |
| 20260906110711 | 68 | 240 | 2.0 | 2.0 | 0.00 | 0.00 | 0.00 | 45 | 1025.0 |
| 20260906110206 | 67 | 261 | 2.0 | 2.0 | 0.00 | 0.00 | 0.00 | 46 | 1024.8 |
| 20260906105700 | 67 | 260 | 1.0 | 2.0 | 0.00 | 0.00 | 0.00 | 46 | 1024.8 |
| 20260906105156 | 67 | 249 | 2.0 | 2.0 | 0.00 | 0.00 | 0.00 | 46 | 1025.3 |
| 20260906104656 | 67 | 249 | 1.0 | 2.0 | 0.00 | 0.00 | 0.00 | 46 | 1024.9 |
| 20260906104155 | 67 | 252 | 1.0 | 2.0 | 0.00 | 0.00 | 0.00 | 45 | 1024.9 |
| 20260906103652 | 68 | 249 | 1.0 | 2.0 | 0.00 | 0.00 | 0.00 | 43 | 1025.0 |
| 20260906103148 | 68 | 249 | 2.0 | 2.0 | 0.00 | 0.00 | 0.00 | 43 | 1025.0 |
| 20260906102643 | 68 | 249 | 0.0 | 0.0 | 0.00 | 0.00 | 0.00 | 42 | 1025.0 |
| 20260906102143 | 68 | 246 | 1.0 | 2.0 | 0.00 | 0.00 | 0.00 | 42 | 1024.9 |
| 20260906101642 | 68 | 248 | 0.0 | 0.0 | 0.00 | 0.00 | 0.00 | 43 | 1024.8 |
| 20260906101137 | 68 | 249 | 0.0 | 0.0 | 0.00 | 0.00 | 0.00 | 42 | 1024.9 |
| 20260906100633 | 68 | 255 | 0.0 | 0.0 | 0.00 | 0.00 | 0.00 | 42 | 1025.1 |
| 20260906100127 | 68 | 251 | 0.0 | 0.0 | 0.00 | 0.00 | 0.00 | 42 | 1024.8 |
| 20260906095622 | 69 | 247 | 0.0 | 0.0 | 0.00 | 0.00 | 0.00 | 42 | 1025.0 |
| 20260906095118 | 69 | 256 | 0.0 | 0.0 | 0.00 | 0.00 | 0.00 | 42 | 1024.9 |
| 20260906094616 | 69 | 248 | 0.0 | 0.0 | 0.00 | 0.00 | 0.00 | 41 | 1024.9 |
| 20260906094112 | 70 | 284 | 0.0 | 0.0 | 0.00 | 0.00 | 0.00 | 41 | 1025.0 |
| 20260906093609 | 70 | 312 | 3.0 | 3.0 | 0.00 | 0.00 | 0.00 | 40 | 1024.4 |
| 20260906093103 | 69 | 242 | 0.0 | 0.0 | 0.00 | 0.00 | 0.00 | 41 | 1024.5 |
| 20260906092558 | 69 | 249 | 0.0 | 0.0 | 0.00 | 0.00 | 0.00 | 42 | 1024.4 |
| 20260906092053 | 68 | 249 | 1.0 | 2.0 | 0.00 | 0.00 | 0.00 | 44 | 1024.5 |
| 20260906091548 | 68 | 251 | 0.0 | 2.0 | 0.00 | 0.00 | 0.00 | 45 | 1024.5 |
| 20260906091040 | 68 | 241 | 0.0 | 0.0 | 0.00 | 0.00 | 0.00 | 46 | 1024.8 |
| 20260906090539 | 68 | 235 | 2.0 | 2.0 | 0.00 | 0.00 | 0.00 | 46 | 1024.6 |
| 20260906090034 | 68 | 229 | 3.0 | 3.0 | 0.00 | 0.00 | 0.00 | 46 | 1024.4 |
| 20260906085533 | 68 | 225 | 5.0 | 5.0 | 0.00 | 0.00 | 0.00 | 46 | 1024.5 |
| 20260906085033 | 68 | 272 | 4.0 | 5.0 | 0.00 | 0.00 | 0.00 | 47 | 1024.4 |
| 20260906084528 | 68 | 228 | 5.0 | 5.0 | 0.00 | 0.00 | 0.00 | 48 | 1024.5 |
| 20260906084026 | 68 | 243 | 2.0 | 2.0 | 0.00 | 0.00 | 0.00 | 48 | 1024.5 |
| 20260906083522 | 68 | 257 | 3.0 | 3.0 | 0.00 | 0.00 | 0.00 | 47 | 1024.4 |
| 20260906083022 | 68 | 255 | 2.0 | 2.0 | 0.00 | 0.00 | 0.00 | 46 | 1024.8 |
| 20260906082517 | 68 | 260 | 3.0 | 5.0 | 0.00 | 0.00 | 0.00 | 47 | 1024.5 |
| 20260906082013 | 68 | 275 | 3.0 | 3.0 | 0.00 | 0.00 | 0.00 | 49 | 1024.8 |
| 20260906081508 | 67 | 267 | 1.0 | 2.0 | 0.00 | 0.00 | 0.00 | 50 | 1024.6 |
| 20260906081004 | 67 | 254 | 2.0 | 2.0 | 0.00 | 0.00 | 0.00 | 50 | 1024.8 |
| 20260906080500 | 68 | 254 | 2.0 | 3.0 | 0.00 | 0.00 | 0.00 | 49 | 1024.9 |
| 20260906075955 | 68 | 267 | 2.0 | 2.0 | 0.00 | 0.00 | 0.00 | 49 | 1024.9 |
| 20260906075450 | 68 | 281 | 3.0 | 3.0 | 0.00 | 0.00 | 0.00 | 49 | 1025.0 |
| 20260906074944 | 68 | 266 | 4.0 | 5.0 | 0.00 | 0.00 | 0.00 | 49 | 1024.9 |
| 20260906074439 | 68 | 241 | 4.0 | 5.0 | 0.00 | 0.00 | 0.00 | 49 | 1024.9 |
| 20260906073937 | 68 | 243 | 4.0 | 5.0 | 0.00 | 0.00 | 0.00 | 50 | 1025.0 |
| 20260906073432 | 67 | 258 | 3.0 | 5.0 | 0.00 | 0.00 | 0.00 | 50 | 1025.1 |
| 20260906072929 | 68 | 260 | 3.0 | 3.0 | 0.00 | 0.00 | 0.00 | 50 | 1025.0 |
| 20260906072424 | 68 | 226 | 2.0 | 2.0 | 0.00 | 0.00 | 0.00 | 50 | 1024.8 |
| 20260906071920 | 68 | 292 | 4.0 | 5.0 | 0.00 | 0.00 | 0.00 | 49 | 1024.9 |
| 20260906071416 | 68 | 255 | 4.0 | 7.0 | 0.00 | 0.00 | 0.00 | 49 | 1025.3 |
| 20260906070911 | 68 | 272 | 7.0 | 10.0 | 0.00 | 0.00 | 0.00 | 48 | 1025.0 |
| 20260906070407 | 68 | 239 | 6.0 | 7.0 | 0.00 | 0.00 | 0.00 | 48 | 1025.0 |
| 20260906065903 | 68 | 253 | 4.0 | 5.0 | 0.00 | 0.00 | 0.00 | 47 | 1025.1 |
| 20260906065356 | 68 | 250 | 3.0 | 3.0 | 0.00 | 0.00 | 0.00 | 47 | 1025.3 |
| 20260906064853 | 68 | 235 | 4.0 | 5.0 | 0.00 | 0.00 | 0.00 | 46 | 1025.0 |
| 20260906064349 | 69 | 247 | 3.0 | 5.0 | 0.00 | 0.00 | 0.00 | 46 | 1025.1 |
| 20260906063848 | 69 | 253 | 3.0 | 3.0 | 0.00 | 0.00 | 0.00 | 46 | 1025.3 |
| 20260906063344 | 68 | 259 | 2.0 | 3.0 | 0.00 | 0.00 | 0.00 | 46 | 1025.0 |
| 20260906062839 | 69 | 263 | 3.0 | 3.0 | 0.00 | 0.00 | 0.00 | 45 | 1025.3 |
| 20260906062338 | 69 | 245 | 5.0 | 7.0 | 0.00 | 0.00 | 0.00 | 45 | 1025.4 |
| 20260906061834 | 69 | 231 | 5.0 | 5.0 | 0.00 | 0.00 | 0.00 | 44 | 1025.1 |
| 20260906061330 | 69 | 261 | 5.0 | 7.0 | 0.00 | 0.00 | 0.00 | 43 | 1025.0 |
| 20260906060824 | 69 | 268 | 5.0 | 7.0 | 0.00 | 0.00 | 0.00 | 43 | 1025.1 |
| 20260906060323 | 70 | 241 | 4.0 | 5.0 | 0.00 | 0.00 | 0.00 | 42 | 1025.1 |
| 20260906055818 | 70 | 254 | 3.0 | 3.0 | 0.00 | 0.00 | 0.00 | 41 | 1025.0 |
| 20260906055314 | 70 | 255 | 1.0 | 2.0 | 0.00 | 0.00 | 0.00 | 41 | 1025.3 |
| 20260906054809 | 69 | 251 | 2.0 | 3.0 | 0.00 | 0.00 | 0.00 | 43 | 1025.1 |
| 20260906054304 | 69 | 250 | 0.0 | 0.0 | 0.00 | 0.00 | 0.00 | 44 | 1025.1 |
| 20260906053800 | 69 | 241 | 0.0 | 0.0 | 0.00 | 0.00 | 0.00 | 45 | 1025.0 |
| 20260906053255 | 69 | 241 | 0.0 | 0.0 | 0.00 | 0.00 | 0.00 | 45 | 1025.4 |
| 20260906052750 | 69 | 235 | 0.0 | 0.0 | 0.00 | 0.00 | 0.00 | 45 | 1025.4 |
| 20260906052246 | 69 | 179 | 2.0 | 2.0 | 0.00 | 0.00 | 0.00 | 45 | 1025.0 |
| 20260906051744 | 70 | 249 | 0.0 | 0.0 | 0.00 | 0.00 | 0.00 | 43 | 1024.9 |
| 20260906051243 | 70 | 248 | 0.0 | 0.0 | 0.00 | 0.00 | 0.00 | 43 | 1025.0 |
| 20260906050738 | 70 | 241 | 0.0 | 0.0 | 0.00 | 0.00 | 0.00 | 43 | 1025.1 |
| 20260906050233 | 70 | 247 | 0.0 | 0.0 | 0.00 | 0.00 | 0.00 | 43 | 1024.8 |
| 20260906045732 | 70 | 247 | 0.0 | 0.0 | 0.00 | 0.00 | 0.00 | 43 | 1024.8 |
| 20260906045227 | 70 | 248 | 0.0 | 0.0 | 0.00 | 0.00 | 0.00 | 43 | 1024.8 |
| 20260906044723 | 71 | 248 | 0.0 | 0.0 | 0.00 | 0.00 | 0.00 | 43 | 1024.8 |
| 20260906044217 | 71 | 248 | 0.0 | 2.0 | 0.00 | 0.00 | 0.00 | 43 | 1024.8 |
| 20260906043714 | 71 | 253 | 0.0 | 2.0 | 0.00 | 0.00 | 0.00 | 43 | 1024.9 |
| 20260906043209 | 70 | 246 | 1.0 | 2.0 | 0.00 | 0.00 | 0.00 | 43 | 1024.8 |
| 20260906042703 | 70 | 247 | 0.0 | 2.0 | 0.00 | 0.00 | 0.00 | 43 | 1024.9 |
| 20260906042157 | 70 | 254 | 1.0 | 2.0 | 0.00 | 0.00 | 0.00 | 43 | 1025.0 |
| 20260906041653 | 70 | 267 | 1.0 | 2.0 | 0.00 | 0.00 | 0.00 | 43 | 1025.0 |
| 20260906041148 | 71 | 253 | 2.0 | 3.0 | 0.00 | 0.00 | 0.00 | 43 | 1025.0 |
| 20260906040643 | 71 | 246 | 1.0 | 2.0 | 0.00 | 0.00 | 0.00 | 43 | 1025.0 |
| 20260906040139 | 71 | 244 | 0.0 | 0.0 | 0.00 | 0.00 | 0.00 | 43 | 1025.0 |
| 20260906035633 | 71 | 253 | 0.0 | 0.0 | 0.00 | 0.00 | 0.00 | 43 | 1025.1 |
| 20260906035129 | 71 | 251 | 0.0 | 2.0 | 0.00 | 0.00 | 0.00 | 43 | 1025.1 |
| 20260906034624 | 71 | 252 | 0.0 | 0.0 | 0.00 | 0.00 | 0.00 | 43 | 1025.3 |
| 20260906034118 | 71 | 251 | 0.0 | 0.0 | 0.00 | 0.00 | 0.00 | 43 | 1025.0 |
| 20260906033614 | 72 | 244 | 0.0 | 0.0 | 0.00 | 0.00 | 0.00 | 42 | 1025.0 |
| 20260906033109 | 71 | 245 | 2.0 | 2.0 | 0.00 | 0.00 | 0.00 | 43 | 1024.9 |
| 20260906032606 | 71 | 251 | 1.0 | 2.0 | 0.00 | 0.00 | 0.00 | 43 | 1025.0 |
| 20260906032105 | 71 | 247 | 2.0 | 2.0 | 0.00 | 0.00 | 0.00 | 43 | 1024.8 |
| 20260906031601 | 72 | 249 | 2.0 | 2.0 | 0.00 | 0.00 | 0.00 | 43 | 1024.5 |
| 20260906031056 | 72 | 247 | 0.0 | 0.0 | 0.00 | 0.00 | 0.00 | 43 | 1024.6 |
| 20260906030555 | 72 | 249 | 1.0 | 2.0 | 0.00 | 0.00 | 0.00 | 43 | 1024.5 |
| 20260906030056 | 72 | 249 | 1.0 | 2.0 | 0.00 | 0.00 | 0.00 | 42 | 1024.6 |
| 20260906025556 | 72 | 245 | 2.0 | 2.0 | 0.00 | 0.00 | 0.00 | 42 | 1024.4 |
| 20260906025054 | 72 | 246 | 0.0 | 0.0 | 0.00 | 0.00 | 0.00 | 42 | 1024.3 |
| 20260906024550 | 73 | 243 | 1.0 | 2.0 | 0.00 | 0.00 | 0.00 | 42 | 1024.3 |
| 20260906024049 | 73 | 261 | 2.0 | 2.0 | 0.00 | 0.00 | 0.00 | 41 | 1024.1 |
| 20260906023546 | 73 | 269 | 2.0 | 3.0 | 0.00 | 0.00 | 0.00 | 41 | 1024.1 |
| 20260906023040 | 73 | 257 | 2.0 | 3.0 | 0.00 | 0.00 | 0.00 | 41 | 1024.3 |
| 20260906022535 | 73 | 247 | 2.0 | 2.0 | 0.00 | 0.00 | 0.00 | 41 | 1024.1 |
| 20260906022031 | 73 | 241 | 2.0 | 3.0 | 0.00 | 0.00 | 0.00 | 41 | 1024.1 |
| 20260906021526 | 73 | 258 | 2.0 | 3.0 | 0.00 | 0.00 | 0.00 | 40 | 1024.0 |
| 20260906021020 | 74 | 243 | 0.0 | 2.0 | 0.00 | 0.00 | 0.00 | 40 | 1023.9 |
| 20260906020519 | 74 | 246 | 3.0 | 5.0 | 0.00 | 0.00 | 0.00 | 40 | 1024.0 |
| 20260906020019 | 74 | 241 | 3.0 | 3.0 | 0.00 | 0.00 | 0.00 | 40 | 1023.6 |
| 20260906015518 | 74 | 259 | 4.0 | 5.0 | 0.00 | 0.00 | 0.00 | 40 | 1023.8 |
| 20260906015018 | 74 | 256 | 3.0 | 3.0 | 0.00 | 0.00 | 0.00 | 39 | 1023.9 |
| 20260906014513 | 75 | 248 | 3.0 | 3.0 | 0.00 | 0.00 | 0.00 | 39 | 1023.9 |
| 20260906014009 | 75 | 283 | 3.0 | 3.0 | 0.00 | 0.00 | 0.00 | 39 | 1023.9 |
| 20260906013504 | 75 | 260 | 3.0 | 3.0 | 0.00 | 0.00 | 0.00 | 39 | 1024.0 |
| 20260906012959 | 76 | 284 | 4.0 | 5.0 | 0.00 | 0.00 | 0.00 | 38 | 1023.9 |
| 20260906012454 | 76 | 253 | 3.0 | 5.0 | 0.00 | 0.00 | 0.00 | 38 | 1023.6 |
| 20260906011954 | 76 | 246 | 3.0 | 3.0 | 0.00 | 0.00 | 0.00 | 37 | 1023.8 |
| 20260906011449 | 77 | 244 | 4.0 | 7.0 | 0.00 | 0.00 | 0.00 | 37 | 1023.8 |
| 20260906010944 | 77 | 242 | 3.0 | 3.0 | 0.00 | 0.00 | 0.00 | 37 | 1023.9 |
| 20260906010440 | 77 | 251 | 3.0 | 3.0 | 0.00 | 0.00 | 0.00 | 36 | 1024.1 |
| 20260906005936 | 78 | 250 | 2.0 | 3.0 | 0.00 | 0.00 | 0.00 | 36 | 1024.1 |
| 20260906005436 | 78 | 267 | 4.0 | 5.0 | 0.00 | 0.00 | 0.00 | 36 | 1023.9 |
| 20260906004934 | 78 | 288 | 5.0 | 7.0 | 0.00 | 0.00 | 0.00 | 35 | 1023.8 |
| 20260906004428 | 79 | 245 | 3.0 | 5.0 | 0.00 | 0.00 | 0.00 | 35 | 1024.0 |
| 20260906003924 | 79 | 291 | 5.0 | 7.0 | 0.00 | 0.00 | 0.00 | 35 | 1024.0 |
| 20260906003419 | 79 | 228 | 4.0 | 10.0 | 0.00 | 0.00 | 0.00 | 34 | 1023.9 |
| 20260906002915 | 80 | 295 | 7.0 | 9.0 | 0.00 | 0.00 | 0.00 | 34 | 1023.9 |
| 20260906002414 | 80 | 249 | 5.0 | 7.0 | 0.00 | 0.00 | 0.00 | 34 | 1023.8 |
| 20260906001909 | 80 | 226 | 3.0 | 5.0 | 0.00 | 0.00 | 0.00 | 34 | 1023.8 |
| 20260906001405 | 80 | 236 | 6.0 | 7.0 | 0.00 | 0.00 | 0.00 | 34 | 1024.0 |
| 20260906000905 | 80 | 228 | 7.0 | 10.0 | 0.00 | 0.00 | 0.00 | 34 | 1023.6 |
| 20260906000403 | 80 | 229 | 2.0 | 3.0 | 0.00 | 0.00 | 0.00 | 33 | 1023.6 |
| 20260905235855 | 80 | 258 | 2.0 | 3.0 | 0.00 | 0.00 | 0.00 | 32 | 1023.6 |
| 20260905235349 | 80 | 300 | 5.0 | 7.0 | 0.00 | 0.00 | 0.00 | 33 | 1023.8 |
| 20260905234844 | 81 | 265 | 3.0 | 3.0 | 0.00 | 0.00 | 0.00 | 32 | 1023.5 |
| 20260905234339 | 82 | 305 | 2.0 | 5.0 | 0.00 | 0.00 | 0.00 | 32 | 1023.4 |
| 20260905233834 | 82 | 261 | 5.0 | 7.0 | 0.00 | 0.00 | 0.00 | 32 | 1023.5 |
| 20260905233329 | 83 | 285 | 5.0 | 5.0 | 0.00 | 0.00 | 0.00 | 31 | 1023.8 |
| 20260905232828 | 83 | 254 | 3.0 | 5.0 | 0.00 | 0.00 | 0.00 | 31 | 1023.4 |
| 20260905232325 | 82 | 271 | 6.0 | 7.0 | 0.00 | 0.00 | 0.00 | 32 | 1023.4 |
| 20260905231820 | 83 | 250 | 3.0 | 7.0 | 0.00 | 0.00 | 0.00 | 31 | 1023.6 |
| 20260905231315 | 83 | 259 | 6.0 | 9.0 | 0.00 | 0.00 | 0.00 | 31 | 1023.5 |
| 20260905230812 | 83 | 244 | 7.0 | 10.0 | 0.00 | 0.00 | 0.00 | 31 | 1023.4 |
| 20260905230309 | 84 | 260 | 3.0 | 3.0 | 0.00 | 0.00 | 0.00 | 30 | 1023.5 |
| 20260905225809 | 83 | 322 | 6.0 | 10.0 | 0.00 | 0.00 | 0.00 | 31 | 1023.5 |
| 20260905225306 | 83 | 316 | 6.0 | 9.0 | 0.00 | 0.00 | 0.00 | 31 | 1023.6 |
| 20260905224804 | 82 | 294 | 9.0 | 17.0 | 0.00 | 0.00 | 0.00 | 32 | 1023.6 |
| 20260905224300 | 82 | 261 | 7.0 | 12.0 | 0.00 | 0.00 | 0.00 | 32 | 1023.3 |
| 20260905223755 | 82 | 219 | 7.0 | 9.0 | 0.00 | 0.00 | 0.00 | 31 | 1023.5 |
| 20260905223252 | 83 | 242 | 10.0 | 14.0 | 0.00 | 0.00 | 0.00 | 31 | 1023.3 |
| 20260905222747 | 85 | 254 | 5.0 | 7.0 | 0.00 | 0.00 | 0.00 | 30 | 1023.5 |
| 20260905222246 | 85 | 254 | 5.0 | 7.0 | 0.00 | 0.00 | 0.00 | 30 | 1023.6 |
| 20260905221742 | 84 | 275 | 5.0 | 7.0 | 0.00 | 0.00 | 0.00 | 30 | 1023.4 |
| 20260905221239 | 85 | 316 | 6.0 | 10.0 | 0.00 | 0.00 | 0.00 | 30 | 1023.5 |
| 20260905220734 | 84 | 286 | 3.0 | 5.0 | 0.00 | 0.00 | 0.00 | 31 | 1023.9 |
| 20260905220230 | 84 | 286 | 3.0 | 5.0 | 0.00 | 0.00 | 0.00 | 31 | 1023.8 |
| 20260905215730 | 83 | 256 | 5.0 | 7.0 | 0.00 | 0.00 | 0.00 | 31 | 1023.6 |
| 20260905215226 | 84 | 294 | 2.0 | 3.0 | 0.00 | 0.00 | 0.00 | 32 | 1023.6 |
| 20260905214721 | 85 | 243 | 7.0 | 9.0 | 0.00 | 0.00 | 0.00 | 31 | 1023.8 |
| 20260905214217 | 85 | 246 | 3.0 | 3.0 | 0.00 | 0.00 | 0.00 | 31 | 1024.0 |
| 20260905213712 | 84 | 233 | 3.0 | 3.0 | 0.00 | 0.00 | 0.00 | 31 | 1024.0 |
| 20260905213208 | 84 | 191 | 4.0 | 5.0 | 0.00 | 0.00 | 0.00 | 31 | 1024.0 |
| 20260905212703 | 82 | 246 | 2.0 | 3.0 | 0.00 | 0.00 | 0.00 | 32 | 1024.1 |
| 20260905212202 | 82 | 257 | 5.0 | 9.0 | 0.00 | 0.00 | 0.00 | 33 | 1024.3 |
| 20260905211657 | 84 | 247 | 5.0 | 7.0 | 0.00 | 0.00 | 0.00 | 32 | 1023.9 |
| 20260905211152 | 85 | 230 | 3.0 | 5.0 | 0.00 | 0.00 | 0.00 | 31 | 1024.1 |
| 20260905210648 | 83 | 234 | 10.0 | 12.0 | 0.00 | 0.00 | 0.00 | 32 | 1024.1 |
| 20260905210143 | 83 | 266 | 8.0 | 10.0 | 0.00 | 0.00 | 0.00 | 32 | 1024.3 |
| 20260905205642 | 83 | 308 | 7.0 | 10.0 | 0.00 | 0.00 | 0.00 | 33 | 1024.4 |
| 20260905205142 | 83 | 280 | 6.0 | 7.0 | 0.00 | 0.00 | 0.00 | 33 | 1024.0 |
| 20260905204641 | 83 | 277 | 5.0 | 7.0 | 0.00 | 0.00 | 0.00 | 33 | 1024.6 |
| 20260905204136 | 82 | 245 | 9.0 | 12.0 | 0.00 | 0.00 | 0.00 | 33 | 1024.4 |
| 20260905203631 | 83 | 236 | 8.0 | 10.0 | 0.00 | 0.00 | 0.00 | 34 | 1024.6 |
| 20260905203126 | 83 | 308 | 6.0 | 7.0 | 0.00 | 0.00 | 0.00 | 33 | 1024.8 |
| 20260905202622 | 83 | 222 | 4.0 | 9.0 | 0.00 | 0.00 | 0.00 | 33 | 1024.8 |
| 20260905202117 | 83 | 251 | 3.0 | 5.0 | 0.00 | 0.00 | 0.00 | 32 | 1025.0 |
| 20260905201613 | 82 | 244 | 5.0 | 7.0 | 0.00 | 0.00 | 0.00 | 34 | 1025.1 |
| 20260905201112 | 81 | 250 | 5.0 | 7.0 | 0.00 | 0.00 | 0.00 | 35 | 1025.3 |
| 20260905200608 | 83 | 264 | 6.0 | 7.0 | 0.00 | 0.00 | 0.00 | 34 | 1025.1 |
| 20260905195556 | 82 | 350 | 5.0 | 5.0 | 0.00 | 0.00 | 0.00 | 34 | 1024.9 |
| 20260905195051 | 82 | 246 | 7.0 | 9.0 | 0.00 | 0.00 | 0.00 | 35 | 1024.9 |
| 20260905194551 | 82 | 242 | 7.0 | 12.0 | 0.00 | 0.00 | 0.00 | 34 | 1025.0 |
| 20260905194050 | 82 | 272 | 6.0 | 7.0 | 0.00 | 0.00 | 0.00 | 36 | 1025.4 |
| 20260905193545 | 82 | 276 | 5.0 | 7.0 | 0.00 | 0.00 | 0.00 | 35 | 1025.3 |
| 20260905193041 | 82 | 247 | 4.0 | 7.0 | 0.00 | 0.00 | 0.00 | 36 | 1025.4 |
| 20260905192536 | 82 | 251 | 5.0 | 7.0 | 0.00 | 0.00 | 0.00 | 35 | 1025.4 |
| 20260905192032 | 82 | 260 | 11.0 | 14.0 | 0.00 | 0.00 | 0.00 | 36 | 1025.1 |
| 20260905191530 | 80 | 238 | 7.0 | 9.0 | 0.00 | 0.00 | 0.00 | 36 | 1025.5 |
| 20260905191030 | 81 | 239 | 5.0 | 5.0 | 0.00 | 0.00 | 0.00 | 37 | 1025.8 |
| 20260905190528 | 82 | 251 | 4.0 | 5.0 | 0.00 | 0.00 | 0.00 | 36 | 1025.5 |
| 20260905190028 | 80 | 248 | 3.0 | 3.0 | 0.00 | 0.00 | 0.00 | 38 | 1025.6 |
| 20260905185527 | 81 | 255 | 5.0 | 9.0 | 0.00 | 0.00 | 0.00 | 37 | 1025.8 |
| 20260905185026 | 80 | 243 | 0.0 | 2.0 | 0.00 | 0.00 | 0.00 | 38 | 1025.8 |
| 20260905184521 | 80 | 302 | 7.0 | 7.0 | 0.00 | 0.00 | 0.00 | 38 | 1025.9 |
| 20260905184019 | 80 | 199 | 1.0 | 2.0 | 0.00 | 0.00 | 0.00 | 38 | 1026.0 |
| 20260905183514 | 80 | 225 | 10.0 | 17.0 | 0.00 | 0.00 | 0.00 | 37 | 1026.3 |
| 20260905183009 | 79 | 275 | 3.0 | 3.0 | 0.00 | 0.00 | 0.00 | 38 | 1026.0 |
| 20260905182509 | 80 | 259 | 4.0 | 7.0 | 0.00 | 0.00 | 0.00 | 37 | 1026.1 |
| 20260905182003 | 79 | 251 | 2.0 | 3.0 | 0.00 | 0.00 | 0.00 | 39 | 1026.1 |
| 20260905181458 | 79 | 234 | 4.0 | 5.0 | 0.00 | 0.00 | 0.00 | 38 | 1026.5 |
| 20260905180957 | 81 | 261 | 7.0 | 9.0 | 0.00 | 0.00 | 0.00 | 38 | 1026.1 |
| 20260905180452 | 80 | 17 | 2.0 | 3.0 | 0.00 | 0.00 | 0.00 | 42 | 1026.4 |
| 20260905175947 | 79 | 272 | 7.0 | 12.0 | 0.00 | 0.00 | 0.00 | 39 | 1026.3 |
| 20260905175447 | 78 | 216 | 7.0 | 9.0 | 0.00 | 0.00 | 0.00 | 40 | 1026.5 |
| 20260905174943 | 77 | 243 | 3.0 | 5.0 | 0.00 | 0.00 | 0.00 | 42 | 1026.6 |
| 20260905174437 | 78 | 292 | 4.0 | 7.0 | 0.00 | 0.00 | 0.00 | 41 | 1026.3 |
| 20260905173933 | 78 | 271 | 5.0 | 7.0 | 0.00 | 0.00 | 0.00 | 42 | 1026.6 |
| 20260905173430 | 77 | 229 | 4.0 | 7.0 | 0.00 | 0.00 | 0.00 | 43 | 1026.4 |
| 20260905172925 | 79 | 260 | 4.0 | 5.0 | 0.00 | 0.00 | 0.00 | 40 | 1026.5 |
| 20260905172422 | 80 | 327 | 5.0 | 7.0 | 0.00 | 0.00 | 0.00 | 39 | 1026.4 |
| 20260905171919 | 78 | 225 | 3.0 | 5.0 | 0.00 | 0.00 | 0.00 | 41 | 1026.6 |
| 20260905171415 | 78 | 64 | 5.0 | 7.0 | 0.00 | 0.00 | 0.00 | 42 | 1026.8 |
| 20260905170911 | 77 | 249 | 3.0 | 3.0 | 0.00 | 0.00 | 0.00 | 43 | 1026.6 |
| 20260905170407 | 79 | 87 | 3.0 | 5.0 | 0.00 | 0.00 | 0.00 | 40 | 1026.3 |
| 20260905165906 | 77 | 70 | 3.0 | 5.0 | 0.00 | 0.00 | 0.00 | 42 | 1026.3 |
| 20260905165401 | 77 | 100 | 1.0 | 2.0 | 0.00 | 0.00 | 0.00 | 44 | 1026.3 |
| 20260905164856 | 76 | 259 | 2.0 | 3.0 | 0.00 | 0.00 | 0.00 | 43 | 1026.5 |
| 20260905164351 | 77 | 307 | 3.0 | 3.0 | 0.00 | 0.00 | 0.00 | 43 | 1026.4 |
| 20260905163846 | 77 | 244 | 4.0 | 5.0 | 0.00 | 0.00 | 0.00 | 43 | 1026.3 |
| 20260905163343 | 77 | 275 | 3.0 | 3.0 | 0.00 | 0.00 | 0.00 | 43 | 1026.5 |
| 20260905162838 | 75 | 234 | 0.0 | 0.0 | 0.00 | 0.00 | 0.00 | 45 | 1026.4 |
| 20260905162338 | 76 | 266 | 5.0 | 7.0 | 0.00 | 0.00 | 0.00 | 44 | 1026.6 |
| 20260905161833 | 76 | 252 | 5.0 | 7.0 | 0.00 | 0.00 | 0.00 | 43 | 1026.5 |
| 20260905161332 | 77 | 236 | 0.0 | 0.0 | 0.00 | 0.00 | 0.00 | 44 | 1026.3 |
| 20260905160830 | 77 | 273 | 3.0 | 5.0 | 0.00 | 0.00 | 0.00 | 43 | 1026.3 |
| 20260905160325 | 77 | 229 | 3.0 | 3.0 | 0.00 | 0.00 | 0.00 | 44 | 1026.5 |
| 20260905155820 | 77 | 257 | 0.0 | 2.0 | 0.00 | 0.00 | 0.00 | 45 | 1026.4 |
| 20260905155319 | 77 | 238 | 3.0 | 5.0 | 0.00 | 0.00 | 0.00 | 44 | 1026.3 |
| 20260905154813 | 77 | 235 | 3.0 | 5.0 | 0.00 | 0.00 | 0.00 | 45 | 1026.4 |
| 20260905154308 | 76 | 331 | 3.0 | 3.0 | 0.00 | 0.00 | 0.00 | 46 | 1026.3 |
| 20260905153804 | 75 | 141 | 1.0 | 2.0 | 0.00 | 0.00 | 0.00 | 47 | 1026.4 |
| 20260905153300 | 75 | 131 | 1.0 | 2.0 | 0.00 | 0.00 | 0.00 | 48 | 1026.3 |
| 20260905152754 | 74 | 270 | 1.0 | 2.0 | 0.00 | 0.00 | 0.00 | 47 | 1026.4 |
| 20260905152254 | 73 | 227 | 2.0 | 3.0 | 0.00 | 0.00 | 0.00 | 48 | 1026.4 |
| 20260905151754 | 73 | 245 | 3.0 | 5.0 | 0.00 | 0.00 | 0.00 | 49 | 1026.4 |
| 20260905151250 | 73 | 247 | 0.0 | 0.0 | 0.00 | 0.00 | 0.00 | 49 | 1026.1 |
| 20260905150744 | 73 | 239 | 0.0 | 2.0 | 0.00 | 0.00 | 0.00 | 50 | 1026.4 |
| 20260905150243 | 73 | 261 | 2.0 | 2.0 | 0.00 | 0.00 | 0.00 | 50 | 1026.4 |
| 20260905145741 | 72 | 252 | 1.0 | 2.0 | 0.00 | 0.00 | 0.00 | 50 | 1026.6 |
| 20260905145236 | 72 | 243 | 2.0 | 3.0 | 0.00 | 0.00 | 0.00 | 50 | 1026.6 |
| 20260905144735 | 71 | 287 | 3.0 | 3.0 | 0.00 | 0.00 | 0.00 | 51 | 1026.3 |
| 20260905144230 | 71 | 231 | 4.0 | 5.0 | 0.00 | 0.00 | 0.00 | 51 | 1026.5 |
| 20260905143729 | 71 | 254 | 5.0 | 5.0 | 0.00 | 0.00 | 0.00 | 52 | 1026.4 |
| 20260905143229 | 70 | 280 | 3.0 | 3.0 | 0.00 | 0.00 | 0.00 | 53 | 1026.0 |
| 20260905142727 | 70 | 274 | 3.0 | 3.0 | 0.00 | 0.00 | 0.00 | 54 | 1026.0 |
| 20260905142222 | 69 | 256 | 3.0 | 3.0 | 0.00 | 0.00 | 0.00 | 54 | 1026.0 |
| 20260905141718 | 69 | 251 | 2.0 | 2.0 | 0.00 | 0.00 | 0.00 | 56 | 1026.0 |
| 20260905141214 | 69 | 243 | 3.0 | 3.0 | 0.00 | 0.00 | 0.00 | 57 | 1026.0 |
| 20260905140709 | 68 | 262 | 4.0 | 5.0 | 0.00 | 0.00 | 0.00 | 59 | 1025.9 |
| 20260905140203 | 68 | 286 | 4.0 | 5.0 | 0.00 | 0.00 | 0.00 | 60 | 1026.0 |
| 20260905135657 | 67 | 252 | 5.0 | 7.0 | 0.00 | 0.00 | 0.00 | 64 | 1025.6 |
| 20260905135148 | 66 | 243 | 2.0 | 3.0 | 0.00 | 0.00 | 0.00 | 66 | 1025.8 |
| 20260905134647 | 66 | 249 | 4.0 | 7.0 | 0.00 | 0.00 | 0.00 | 67 | 1025.9 |
| 20260905134146 | 66 | 273 | 3.0 | 3.0 | 0.00 | 0.00 | 0.00 | 67 | 1025.8 |
| 20260905133642 | 65 | 228 | 3.0 | 3.0 | 0.00 | 0.00 | 0.00 | 69 | 1026.1 |
| 20260905133142 | 65 | 246 | 3.0 | 3.0 | 0.00 | 0.00 | 0.00 | 71 | 1026.0 |
| 20260905132641 | 64 | 266 | 4.0 | 5.0 | 0.00 | 0.00 | 0.00 | 72 | 1025.6 |
| 20260905132136 | 64 | 258 | 3.0 | 3.0 | 0.00 | 0.00 | 0.00 | 74 | 1025.9 |
| 20260905131631 | 63 | 273 | 3.0 | 5.0 | 0.00 | 0.00 | 0.00 | 75 | 1025.6 |
| 20260905131126 | 62 | 276 | 4.0 | 5.0 | 0.00 | 0.00 | 0.00 | 76 | 1025.6 |
| 20260905130621 | 62 | 244 | 5.0 | 7.0 | 0.00 | 0.00 | 0.00 | 77 | 1025.6 |
| 20260905130121 | 61 | 253 | 3.0 | 3.0 | 0.00 | 0.00 | 0.00 | 78 | 1025.5 |